[[{"header":{"parameterUnit":"m.s-1","parameterCategory":2,"la1":30.2991,"la2":30.254,"lo1":-89.0895,"lo2":-89.0444,"dy":0.0017,"dx":0.0017,"nx":28,"ny":28,"refTime":"2023-11-03T21:00:00:Z","depth":"0","parameterNumber":2,"parameterNumberName":"U-component_of_CURRENTS"},"data":[0,0,0,0,0,0,0,0,0,0,0,0,0,0,0,0,0,0,0,0,0,0,0,0,0,0,0,0,0,0,0,0,0,0,0,0,0,0,0,0,0,0,0,0,0,0,0,0,0,0,0,0,0,0,0,0,0,0,0.2323,0.2324,0,0.2339,0.2339,0.2339,0.2338,0.2338,0.2338,0.2338,0.2352,0.2352,0.2352,0,0,0,0,0,0,0,0,0,0,0,0,0,0.2271,0.2272,0.2323,0.2324,0.2324,0.2339,0.2339,0.2338,0.2338,0.2338,0.2338,0.2338,0.2352,0.2352,0.2352,0,0,0,0,0,0,0,0,0,0,0,0,0,0.2288,0.2272,0.2323,0.2328,0.2329,0.2339,0.2339,0.2338,0.2338,0.2338,0.2338,0.2338,0.2352,0.2352,0.2352,0.2353,0,0,0.2354,0.2354,0,0,0,0,0,0,0,0,0.2287,0.229,0.2327,0.2327,0.2328,0.2339,0.2325,0.2344,0.2338,0.2331,0.2338,0.2338,0.2349,0.235,0.2348,0.2354,0.2355,0.2354,0.2354,0.2354,0.2354,0,0,0,0,0,0,0,0.2286,0.2289,0.2326,0.2327,0.2328,0.2322,0.2324,0.2329,0.2337,0.2332,0.2333,0.2339,0.2349,0.2348,0.2349,0.2355,0.2354,0.2354,0.2355,0.2355,0.2344,0.2344,0,0,0,0,0,0,0.2291,0.2288,0.2326,0.2327,0.2311,0.2323,0.2325,0.2333,0.2337,0.2339,0.2339,0.2339,0.2347,0.2348,0.2349,0.2329,0.2354,0.2355,0.2355,0.2345,0.2344,0.2344,0,0,0,0,0,0,0.229,0.2294,0.2325,0.231,0.2314,0.2324,0.2333,0.2334,0.2333,0.2343,0.2344,0.2338,0.2347,0.2349,0.2348,0.2331,0.2355,0.2355,0.2346,0.2345,0.2344,0.2303,0,0,0,0,0,0,0.2288,0.2294,0.2293,0.231,0.2315,0.233,0.2333,0.2334,0.2338,0.2338,0.2343,0.2344,0.2347,0.2347,0.2348,0.2332,0.2356,0.2346,0.2345,0.2344,0.2305,0.2301,0.2297,0,0,0,0,0,0.2286,0.2287,0.2293,0.2298,0.2317,0.233,0.2332,0.2337,0.2338,0.2336,0.2336,0.2344,0.2341,0.2347,0.2349,0.2332,0.2347,0.2345,0.2344,0.2307,0.2302,0.2297,0,0,0,0,0,0,0.226,0.2288,0.2295,0.2303,0.2316,0.2331,0.233,0.2337,0.2335,0.2334,0.234,0.2341,0.2331,0.2341,0.2347,0.2326,0.2344,0.2343,0.2315,0.231,0.2307,0.2338,0.2356,0,0,0,0,0,0.2256,0.2267,0.229,0.2296,0.2303,0.2316,0.232,0.2328,0.2334,0.2333,0.2335,0.2334,0.2327,0.2327,0.2326,0.2319,0.236,0.2309,0.2305,0.2301,0.2328,0.2343,0.2343,0.234,0.234,0.234,0,0,0.2247,0.2265,0.227,0.2291,0.2301,0.2313,0.2318,0.2327,0.2334,0.2335,0.2334,0.2322,0.2322,0.2308,0.2305,0.2315,0.2329,0.23,0.2297,0.2326,0.2342,0.2343,0.2343,0.2339,0.2339,0.2339,0,0,0.2245,0.2252,0.2264,0.2275,0.2296,0.2305,0.2309,0.2323,0.2324,0.2324,0.2318,0.23,0.2299,0.2288,0.2285,0.2263,0.2306,0.2256,0.2263,0.2276,0.2277,0.2278,0.2355,0.2363,0.2255,0.2255,0.2255,0,0.2239,0.2256,0.2267,0.2282,0.2295,0.2304,0.232,0.2319,0.2329,0.2328,0.2322,0.2301,0.2291,0.2275,0.2264,0.2254,0.2296,0.2277,0.2272,0.2274,0.2276,0.2354,0.2364,0.2253,0.2253,0.2253,0.2254,0,0.2252,0.2261,0.2267,0.2293,0.2303,0.2316,0.2328,0.2327,0.2325,0.2323,0.2307,0.2287,0.2281,0.2257,0.2256,0.2254,0.2293,0.2263,0.2285,0.2274,0.2357,0.2368,0.225,0.2251,0.2251,0.2252,0,0,0.2266,0.2277,0.228,0.2286,0.2313,0.2319,0.233,0.234,0.2338,0.2326,0.2325,0.229,0.228,0.2277,0.2258,0.2263,0.2304,0.2275,0.2276,0.2356,0.2391,0.2285,0.2288,0.2271,0.2272,0.2272,0.2453,0,0.2281,0.2296,0.2307,0.232,0.233,0.2341,0.2348,0.2351,0.2346,0.234,0.2316,0.2301,0.2287,0.2274,0.2278,0.2288,0.2329,0.2263,0.2388,0.2393,0.2302,0.2294,0.2132,0.2266,0.2464,0.2466,0.2467,0,0.2302,0.2308,0.232,0.2329,0.2335,0.2341,0.2351,0.2359,0.2354,0.2351,0.234,0.2327,0.2331,0.231,0.237,0.2332,0.2381,0.2396,0.2402,0.2329,0.2305,0.2304,0.2279,0.2199,0.2484,0.2483,0.2482,0,0.2304,0.232,0.2323,0.2329,0.234,0.2344,0.2352,0.2355,0.2356,0.2358,0.2355,0.2363,0.2363,0.2406,0.2442,0.2416,0.2522,0.2484,0.2457,0.2455,0.2356,0.2339,0.2268,0.2559,0.2559,0.2558,0.2558,0,0.2321,0.2316,0.2316,0.2317,0.2319,0.2334,0.2334,0.2345,0.2351,0.2347,0.2357,0.2357,0.2384,0.2432,0.2477,0.2503,0.2561,0.2479,0.2478,0.2337,0.2317,0.2273,0.2258,0.2565,0.2564,0.2562,0.2561,0,0.2304,0.2309,0.2312,0.2321,0.2318,0.2317,0.2321,0.2317,0.2335,0.2335,0.2339,0.237,0.2424,0.2477,0.2555,0.2531,0.2486,0.2586,0.2445,0.242,0.2241,0.223,0.2149,0.2101,0.2567,0.2565,0.2564,0,0.2286,0.2289,0.2304,0.2302,0.2299,0.2293,0.2288,0.2305,0.2307,0.2335,0.2339,0.2389,0.2407,0.2488,0.2461,0.2526,0.2473,0.2404,0.2285,0.2214,0.2204,0.2135,0.2097,0.2182,0.2178,0.2174,0.2171,0,0.2258,0.2271,0.2274,0.2272,0.2267,0.2257,0.2256,0.2258,0.2281,0.2286,0.2302,0.2318,0.2354,0.2298,0.2345,0.2346,0.2224,0.2325,0.2273,0.191,0.1811,0.177,0.2144,0.2138,0.2141,0.2144,0.2145,0.2147,0.2233,0.2233,0.2245,0.2235,0.2223,0.2211,0.2189,0.2194,0.219,0.2167,0.2237,0.2209,0.2146,0.2149,0.2144,0.1959,0.2023,0.1855,0.1869,0.1823,0.1674,0.1989,0.1939,0.1941,0.1942,0.1944,0.1945,0,0.2206,0.2205,0.2199,0.2181,0.2145,0.2161,0.2149,0.2105,0.2075,0.2075,0.2064,0.1967,0.1868,0.1812,0.1624,0.1517,0.1464,0.1462,0.134,0.1345,0.1645,0.1517,0.1339,0.1339,0.1339,0.134,0.134,0.134,0.2187,0.2177,0.2171,0.2098,0.2079,0.2007,0.1995,0.1941,0.1916,0.1799,0.1722,0.1709,0.1604,0.1397,0.1208,0.1175,0.1111,0.1011,0.11,0.1305,0.1343,0.1379,0.1252,0.1022,0.1022,0.07,0.0698,0.0696]},{"header":{"parameterUnit":"m.s-1","parameterCategory":2,"la1":30.2991,"la2":30.254,"lo1":-89.0895,"lo2":-89.0444,"dy":0.0017,"dx":0.0017,"nx":28,"ny":28,"refTime":"2023-11-03T21:00:00:Z","depth":"0","parameterNumber":3,"parameterNumberName":"V-component_of_CURRENTS"},"data":[0,0,0,0,0,0,0,0,0,0,0,0,0,0,0,0,0,0,0,0,0,0,0,0,0,0,0,0,0,0,0,0,0,0,0,0,0,0,0,0,0,0,0,0,0,0,0,0,0,0,0,0,0,0,0,0,0,0,-0.1721,-0.1721,0,-0.1747,-0.1747,-0.1747,-0.1734,-0.1733,-0.1733,-0.1733,-0.1687,-0.1686,-0.1685,0,0,0,0,0,0,0,0,0,0,0,0,0,-0.1629,-0.1631,-0.1721,-0.1721,-0.1722,-0.1747,-0.1747,-0.1747,-0.1734,-0.1733,-0.1733,-0.1733,-0.1688,-0.1686,-0.1685,0,0,0,0,0,0,0,0,0,0,0,0,0,-0.1659,-0.1631,-0.172,-0.1722,-0.1722,-0.1747,-0.1747,-0.1747,-0.1734,-0.1733,-0.1733,-0.1733,-0.1688,-0.1687,-0.1685,-0.1685,0,0,-0.1681,-0.168,0,0,0,0,0,0,0,0,-0.1658,-0.1662,-0.1721,-0.1722,-0.1723,-0.174,-0.1698,-0.1724,-0.1734,-0.1725,-0.1733,-0.1732,-0.1701,-0.1699,-0.17,-0.1683,-0.1681,-0.1681,-0.168,-0.1679,-0.1679,0,0,0,0,0,0,0,-0.1656,-0.1661,-0.1727,-0.1722,-0.1723,-0.1711,-0.1715,-0.1703,-0.1711,-0.1726,-0.1726,-0.1736,-0.1701,-0.1701,-0.1698,-0.1681,-0.1681,-0.168,-0.1679,-0.1678,-0.168,-0.1681,0,0,0,0,0,0,-0.1664,-0.1659,-0.1726,-0.1728,-0.1693,-0.1713,-0.1717,-0.1732,-0.1712,-0.1711,-0.1736,-0.1735,-0.1704,-0.17,-0.1697,-0.1688,-0.1679,-0.1678,-0.1677,-0.1679,-0.168,-0.1681,0,0,0,0,0,0,-0.1661,-0.1669,-0.1725,-0.1697,-0.1704,-0.1716,-0.1732,-0.1732,-0.1734,-0.1722,-0.1718,-0.1738,-0.1703,-0.1699,-0.17,-0.1687,-0.1677,-0.1676,-0.1678,-0.1679,-0.1681,-0.1676,0,0,0,0,0,0,-0.1659,-0.1668,-0.1678,-0.1698,-0.1706,-0.1739,-0.1733,-0.1733,-0.1743,-0.1742,-0.1722,-0.1718,-0.1703,-0.1703,-0.1699,-0.1685,-0.1675,-0.1677,-0.1678,-0.168,-0.1675,-0.1677,-0.1679,0,0,0,0,0,-0.1655,-0.1672,-0.1679,-0.1687,-0.172,-0.174,-0.1742,-0.1746,-0.1744,-0.1745,-0.1743,-0.1718,-0.171,-0.1702,-0.1698,-0.1683,-0.1676,-0.1678,-0.168,-0.1674,-0.1677,-0.1679,0,0,0,0,0,0,-0.1637,-0.1674,-0.1681,-0.1708,-0.1724,-0.174,-0.1745,-0.175,-0.175,-0.1745,-0.1731,-0.1727,-0.1722,-0.1714,-0.1706,-0.1693,-0.1688,-0.1689,-0.1686,-0.1688,-0.169,-0.1649,-0.1674,0,0,0,0,0,-0.164,-0.1663,-0.169,-0.1711,-0.1719,-0.1732,-0.1741,-0.1744,-0.1751,-0.175,-0.1741,-0.1733,-0.1727,-0.1718,-0.1712,-0.1705,-0.1629,-0.1695,-0.1697,-0.1698,-0.1665,-0.1576,-0.1565,-0.1688,-0.1688,-0.1688,0,0,-0.1638,-0.1664,-0.1676,-0.1709,-0.172,-0.172,-0.1735,-0.1748,-0.1739,-0.1744,-0.1731,-0.1739,-0.173,-0.1723,-0.1719,-0.1712,-0.1618,-0.17,-0.1701,-0.1666,-0.1577,-0.1564,-0.1553,-0.1689,-0.1689,-0.1688,0,0,-0.164,-0.1669,-0.168,-0.1691,-0.1714,-0.1719,-0.1724,-0.1739,-0.1737,-0.1739,-0.1739,-0.1741,-0.1735,-0.1721,-0.1714,-0.1724,-0.1635,-0.1731,-0.1696,-0.1612,-0.1599,-0.1587,-0.1439,-0.1414,-0.1727,-0.1727,-0.1727,0,-0.1631,-0.1648,-0.1684,-0.169,-0.1684,-0.1715,-0.1699,-0.1711,-0.1724,-0.1703,-0.1732,-0.171,-0.1724,-0.1685,-0.1704,-0.172,-0.1636,-0.1685,-0.1608,-0.1595,-0.1583,-0.1434,-0.1407,-0.1727,-0.1727,-0.1727,-0.1727,0,-0.1632,-0.1638,-0.1644,-0.1655,-0.1656,-0.1654,-0.1667,-0.1663,-0.1669,-0.1667,-0.1645,-0.1673,-0.1642,-0.1672,-0.1695,-0.1627,-0.1579,-0.1621,-0.159,-0.1569,-0.1415,-0.1386,-0.1727,-0.1727,-0.1727,-0.1727,0,0,-0.16,-0.1636,-0.1626,-0.1609,-0.1628,-0.1617,-0.1607,-0.1581,-0.1531,-0.1575,-0.1501,-0.1557,-0.156,-0.1554,-0.1584,-0.1545,-0.1409,-0.155,-0.1545,-0.1377,-0.1153,-0.1079,-0.104,-0.1433,-0.1429,-0.1426,-0.1064,0,-0.157,-0.1565,-0.1583,-0.1541,-0.1528,-0.1533,-0.1502,-0.1486,-0.1474,-0.1417,-0.1451,-0.1405,-0.1517,-0.1487,-0.1475,-0.1424,-0.1339,-0.1498,-0.1219,-0.1208,-0.1126,-0.1008,-0.1015,-0.0691,-0.1036,-0.1031,-0.1027,0,-0.153,-0.1533,-0.1498,-0.1454,-0.144,-0.1416,-0.1329,-0.1306,-0.1257,-0.1239,-0.1221,-0.123,-0.1189,-0.1289,-0.1158,-0.1249,-0.1186,-0.1157,-0.1143,-0.105,-0.1082,-0.0777,-0.0625,-0.0711,-0.0983,-0.0986,-0.0989,0,-0.1454,-0.1443,-0.1405,-0.1399,-0.1375,-0.1329,-0.1297,-0.1244,-0.1178,-0.1104,-0.1023,-0.1012,-0.0937,-0.0915,-0.0888,-0.0993,-0.0703,-0.0831,-0.0683,-0.0675,-0.061,-0.0603,-0.0486,-0.0684,-0.0685,-0.0686,-0.0687,0,-0.139,-0.134,-0.1366,-0.1341,-0.1251,-0.1254,-0.1134,-0.1097,-0.1007,-0.0877,-0.0916,-0.0787,-0.084,-0.0715,-0.0746,-0.0581,-0.0565,-0.0606,-0.0566,-0.0608,-0.0606,-0.0626,-0.0691,-0.0672,-0.0675,-0.0678,-0.068,0,-0.1275,-0.1309,-0.1255,-0.1236,-0.1217,-0.1141,-0.1039,-0.094,-0.0869,-0.0689,-0.0644,-0.0544,-0.0368,-0.0375,-0.0258,-0.0324,-0.0224,-0.0169,-0.0182,-0.0152,-0.0177,-0.0242,0.0033,0.0019,0.0053,0.0057,0.0061,0,-0.1209,-0.1184,-0.1166,-0.1118,-0.1097,-0.1009,-0.0929,-0.0874,-0.0761,-0.0525,-0.0406,-0.0191,-0.0024,0.019,0.0137,0.021,0.006,0.0225,-0.0018,-0.0103,-0.0147,-0.0202,-0.0243,0.0098,0.0102,0.0105,0.0107,0,-0.106,-0.1065,-0.1024,-0.0956,-0.0884,-0.0794,-0.0682,-0.0586,-0.0464,-0.0293,-0.0013,0.0146,0.035,0.0434,0.0503,0.0472,0.0165,0.0287,0.0194,-0.0072,-0.0114,-0.0135,-0.0181,0.0132,0.013,0.0128,0.0127,0.0126,-0.0919,-0.0862,-0.0826,-0.074,-0.067,-0.055,-0.0436,-0.0311,-0.0106,0.0175,0.0271,0.0543,0.0579,0.067,0.0625,0.0478,0.0439,0.0344,0.0299,0.027,0.0171,0.0221,0.0549,0.0549,0.0549,0.0549,0.0549,0,-0.0709,-0.0671,-0.0597,-0.0494,-0.0377,-0.0396,-0.023,-0.0105,0.0155,0.0377,0.0615,0.081,0.0828,0.0743,0.0582,0.0463,0.0339,0.0382,0.0238,0.0208,0.0267,0.0169,0.0433,0.0433,0.0434,0.0434,0.0434,0.0434,-0.0584,-0.0466,-0.0451,-0.0236,-0.0163,0.0007,0.0106,0.0257,0.0416,0.0727,0.091,0.1038,0.0981,0.0657,0.0417,0.0351,0.0205,0.0252,0.0198,0.012,0.0107,0.0096,-0.0015,0.0207,0.0207,0.0103,0.0102,0.0101]}],[{"header":{"parameterUnit":"m.s-1","parameterCategory":2,"la1":30.2991,"la2":30.254,"lo1":-89.0895,"lo2":-89.0444,"dy":0.0017,"dx":0.0017,"nx":28,"ny":28,"refTime":"2023-11-03T21:00:00:Z","depth":"2","parameterNumber":2,"parameterNumberName":"U-component_of_CURRENTS"},"data":[0,0,0,0,0,0,0,0,0,0,0,0,0,0,0,0,0,0,0,0,0,0,0,0,0,0,0,0,0,0,0,0,0,0,0,0,0,0,0,0,0,0,0,0,0,0,0,0,0,0,0,0,0,0,0,0,0,0,0.1395,0.1395,0,0.1404,0.1404,0.1404,0.1397,0.1397,0.1397,0.1397,0.1405,0.1405,0.1405,0,0,0,0,0,0,0,0,0,0,0,0,0,0.1477,0.1474,0.1395,0.1395,0.1396,0.1404,0.1404,0.1404,0.1397,0.1397,0.1397,0.1398,0.1405,0.1405,0.1405,0,0,0,0,0,0,0,0,0,0,0,0,0,0.1455,0.1473,0.1394,0.1397,0.1397,0.1404,0.1404,0.1403,0.1397,0.1397,0.1397,0.1398,0.1405,0.1405,0.1405,0.1403,0,0,0.1406,0.1406,0,0,0,0,0,0,0,0,0.1456,0.1451,0.1396,0.1397,0.1397,0.1404,0.1436,0.1405,0.1397,0.1392,0.1397,0.1398,0.1407,0.1407,0.1402,0.1403,0.1403,0.1406,0.1406,0.1406,0.1406,0,0,0,0,0,0,0,0.1457,0.1451,0.1394,0.1397,0.1397,0.1434,0.1429,0.143,0.1395,0.1393,0.1394,0.1402,0.1407,0.1402,0.1402,0.1404,0.1406,0.1406,0.1406,0.1406,0.1457,0.1458,0,0,0,0,0,0,0.1459,0.1452,0.1394,0.1395,0.1433,0.1432,0.1427,0.1398,0.1395,0.1396,0.1402,0.1401,0.1402,0.1402,0.1403,0.1466,0.1406,0.1406,0.1406,0.1455,0.1457,0.1458,0,0,0,0,0,0,0.146,0.1452,0.1393,0.143,0.1425,0.143,0.1398,0.1398,0.1413,0.1403,0.1403,0.142,0.1402,0.1403,0.1424,0.1464,0.1406,0.1406,0.1454,0.1456,0.1458,0.155,0,0,0,0,0,0,0.1461,0.1451,0.1443,0.1428,0.1423,0.1404,0.1398,0.1398,0.1419,0.1419,0.1418,0.1418,0.1402,0.1424,0.1425,0.1463,0.1406,0.1452,0.1455,0.1457,0.1545,0.1555,0.1563,0,0,0,0,0,0.1463,0.1451,0.1442,0.1437,0.1406,0.1405,0.1405,0.1408,0.142,0.1424,0.1434,0.1419,0.1439,0.1426,0.1425,0.1465,0.1451,0.1454,0.1457,0.1541,0.1553,0.1563,0,0,0,0,0,0,0.1491,0.1449,0.1439,0.1415,0.1414,0.1405,0.1419,0.1424,0.1434,0.1447,0.1434,0.1434,0.147,0.1451,0.1436,0.1485,0.1443,0.1446,0.1508,0.1518,0.1527,0.1536,0.1406,0,0,0,0,0,0.1491,0.1465,0.1442,0.1431,0.143,0.143,0.1438,0.1441,0.1446,0.1451,0.1455,0.1463,0.1478,0.1485,0.1488,0.1513,0.15,0.1538,0.1547,0.1554,0.1561,0.1585,0.1597,0.1468,0.1468,0.1468,0,0,0.1507,0.1479,0.147,0.1437,0.1438,0.144,0.1434,0.1452,0.1471,0.1452,0.1488,0.1497,0.1492,0.1524,0.1538,0.1515,0.1582,0.1558,0.1565,0.1567,0.1589,0.1602,0.1613,0.147,0.1469,0.1469,0,0,0.1517,0.1494,0.1473,0.1472,0.1473,0.1472,0.1483,0.1487,0.1504,0.1534,0.1537,0.1572,0.158,0.1593,0.1598,0.1655,0.1631,0.1658,0.171,0.1734,0.1745,0.1755,0.1748,0.1756,0.166,0.166,0.166,0,0.1543,0.1493,0.1477,0.1465,0.1472,0.1489,0.1489,0.1513,0.1532,0.155,0.1556,0.1606,0.1614,0.1658,0.1689,0.1679,0.1675,0.1673,0.1747,0.1756,0.1765,0.1755,0.1763,0.1665,0.1664,0.1664,0.1663,0,0.1523,0.1505,0.1504,0.148,0.1492,0.1501,0.1524,0.1556,0.1588,0.1606,0.1666,0.1689,0.1713,0.1735,0.1736,0.1803,0.1776,0.176,0.1723,0.1784,0.1769,0.1776,0.1671,0.167,0.1668,0.1667,0,0,0.1511,0.1489,0.149,0.1489,0.1499,0.151,0.1554,0.1581,0.1621,0.1669,0.1715,0.1777,0.1799,0.1808,0.1825,0.1864,0.1933,0.185,0.1849,0.1848,0.1971,0.1851,0.1846,0.1936,0.1938,0.1939,0.1935,0,0.1496,0.148,0.1469,0.1486,0.1483,0.1517,0.1553,0.16,0.1645,0.1701,0.1758,0.1808,0.1823,0.1856,0.1902,0.1928,0.1956,0.1934,0.1908,0.1907,0.1798,0.1852,0.1707,0.1683,0.1941,0.1942,0.1943,0,0.1458,0.1455,0.1457,0.1481,0.1484,0.1511,0.1575,0.1609,0.169,0.1727,0.1793,0.1834,0.1917,0.1919,0.1991,0.1978,0.1987,0.2001,0.2,0.186,0.18,0.1665,0.1685,0.1954,0.1953,0.1952,0.1951,0,0.1442,0.1443,0.1449,0.1458,0.1492,0.1519,0.1551,0.1622,0.1656,0.1752,0.1789,0.1875,0.1928,0.1971,0.2014,0.201,0.2076,0.2057,0.1948,0.1938,0.1793,0.1767,0.2099,0.2099,0.2099,0.2099,0.2099,0,0.1405,0.1412,0.1451,0.1459,0.149,0.1522,0.1568,0.1615,0.1682,0.1729,0.1807,0.186,0.1951,0.1999,0.2024,0.2003,0.2074,0.1964,0.1937,0.1817,0.1794,0.2009,0.1999,0.2099,0.2099,0.2099,0.2099,0,0.137,0.1388,0.1407,0.146,0.1478,0.151,0.1563,0.1599,0.1663,0.173,0.1764,0.1861,0.1907,0.1959,0.2022,0.1992,0.1996,0.1965,0.1803,0.1756,0.1835,0.183,0.1834,0.183,0.1827,0.1824,0.1822,0,0.134,0.1352,0.1415,0.1435,0.1458,0.1503,0.1532,0.1589,0.162,0.1725,0.1753,0.1825,0.1845,0.1864,0.1834,0.1807,0.1903,0.1656,0.1616,0.1839,0.1813,0.1813,0.1812,0.1464,0.1459,0.1454,0.1451,0,0.1303,0.1343,0.1363,0.141,0.1447,0.1471,0.1517,0.1527,0.1602,0.1637,0.1683,0.1706,0.1712,0.1613,0.1574,0.1551,0.1646,0.1563,0.1863,0.154,0.1485,0.1461,0.1474,0.1413,0.1417,0.142,0.1422,0.1424,0.1284,0.1298,0.1343,0.1374,0.1413,0.1429,0.1419,0.1448,0.1457,0.1464,0.1548,0.1498,0.1498,0.1322,0.1284,0.1254,0.1362,0.1318,0.1334,0.1353,0.1298,0.1239,0.1109,0.1111,0.1113,0.1114,0.1116,0,0.1247,0.1276,0.1304,0.1327,0.133,0.1382,0.1394,0.1346,0.1308,0.1305,0.1288,0.1127,0.1042,0.1058,0.0936,0.0915,0.0939,0.0892,0.0931,0.0967,0.1,0.093,0.0642,0.0641,0.064,0.0639,0,0,0.1229,0.1235,0.1242,0.123,0.1255,0.1231,0.1221,0.1144,0.1099,0.0983,0.0916,0.0942,0.0983,0.0782,0.076,0.0687,0.0824,0.0653,0.103,0.1109,0.114,0.1237,0.1167,0,0,0,0,0]},{"header":{"parameterUnit":"m.s-1","parameterCategory":2,"la1":30.2991,"la2":30.254,"lo1":-89.0895,"lo2":-89.0444,"dy":0.0017,"dx":0.0017,"nx":28,"ny":28,"refTime":"2023-11-03T21:00:00:Z","depth":"2","parameterNumber":3,"parameterNumberName":"V-component_of_CURRENTS"},"data":[0,0,0,0,0,0,0,0,0,0,0,0,0,0,0,0,0,0,0,0,0,0,0,0,0,0,0,0,0,0,0,0,0,0,0,0,0,0,0,0,0,0,0,0,0,0,0,0,0,0,0,0,0,0,0,0,0,0,0.0397,0.0397,0,0.0412,0.0413,0.0413,0.0376,0.0375,0.0374,0.0373,0.0324,0.0323,0.0323,0,0,0,0,0,0,0,0,0,0,0,0,0,0.04,0.04,0.0397,0.0397,0.0397,0.0412,0.0413,0.0413,0.0377,0.0375,0.0373,0.0372,0.0324,0.0323,0.0323,0,0,0,0,0,0,0,0,0,0,0,0,0,0.0407,0.04,0.0397,0.038,0.0378,0.0412,0.0413,0.0413,0.0377,0.0375,0.0373,0.0371,0.0324,0.0323,0.0323,0.0362,0,0,0.0323,0.0323,0,0,0,0,0,0,0,0,0.0407,0.0407,0.0382,0.0381,0.0379,0.0389,0.0396,0.0392,0.0378,0.0379,0.0373,0.037,0.034,0.0338,0.0349,0.0359,0.0357,0.0323,0.0323,0.0323,0.0323,0,0,0,0,0,0,0,0.0406,0.0407,0.0405,0.0382,0.038,0.0393,0.0391,0.0396,0.037,0.0379,0.0376,0.0376,0.0339,0.0349,0.0347,0.0357,0.0323,0.0323,0.0323,0.0323,0.0321,0.0321,0,0,0,0,0,0,0.04,0.0406,0.0404,0.0405,0.0387,0.0394,0.0392,0.0389,0.0372,0.0367,0.0377,0.0374,0.035,0.0347,0.0345,0.0325,0.0323,0.0323,0.0323,0.0321,0.0321,0.0321,0,0,0,0,0,0,0.04,0.04,0.0403,0.0405,0.0406,0.0395,0.0393,0.039,0.0377,0.0371,0.0365,0.0363,0.0349,0.0345,0.0333,0.0325,0.0323,0.0322,0.0321,0.0321,0.0321,0.0325,0,0,0,0,0,0,0.04,0.04,0.0393,0.0404,0.0405,0.0408,0.0394,0.0392,0.0381,0.0376,0.0357,0.0352,0.0347,0.0333,0.0333,0.0324,0.0322,0.0321,0.0321,0.0321,0.0325,0.0326,0.0326,0,0,0,0,0,0.04,0.0413,0.0393,0.0392,0.0397,0.0408,0.041,0.0397,0.0382,0.0378,0.0365,0.0352,0.0333,0.0334,0.0333,0.0324,0.0321,0.0321,0.0321,0.0325,0.0326,0.0326,0,0,0,0,0,0,0.0406,0.0411,0.0389,0.0398,0.0389,0.04,0.0396,0.0391,0.0382,0.0364,0.0359,0.0354,0.034,0.0336,0.0337,0.0324,0.0322,0.0322,0.0325,0.0326,0.0326,0.0334,0.0322,0,0,0,0,0,0.0405,0.0415,0.0406,0.0409,0.0398,0.0391,0.0392,0.038,0.0376,0.0369,0.0357,0.0345,0.0348,0.0337,0.0335,0.0333,0.0334,0.0325,0.0325,0.0325,0.0332,0.0345,0.0348,0.0321,0.0321,0.0321,0,0,0.0403,0.041,0.041,0.0411,0.0397,0.039,0.0386,0.0375,0.0374,0.0366,0.0351,0.0346,0.0349,0.0344,0.0336,0.0333,0.0329,0.0325,0.0326,0.0332,0.0346,0.0348,0.0351,0.0322,0.0322,0.0322,0,0,0.0414,0.0405,0.0408,0.0399,0.038,0.0383,0.0374,0.0365,0.0357,0.035,0.0346,0.0345,0.0331,0.0343,0.0348,0.0353,0.0334,0.0333,0.0338,0.0351,0.0354,0.0356,0.0342,0.0343,0.0329,0.0329,0.0329,0,0.0403,0.0409,0.0409,0.04,0.0396,0.0375,0.0367,0.0366,0.0357,0.0364,0.0335,0.0349,0.034,0.037,0.0357,0.0355,0.0343,0.0336,0.0352,0.0355,0.0357,0.0342,0.0343,0.033,0.033,0.033,0.033,0,0.0414,0.0402,0.04,0.0386,0.0385,0.0375,0.0365,0.0362,0.0347,0.0352,0.036,0.0359,0.0369,0.0362,0.0354,0.037,0.0347,0.0355,0.0352,0.036,0.0343,0.0345,0.033,0.033,0.033,0.033,0,0,0.0416,0.0411,0.04,0.0393,0.0374,0.0381,0.0377,0.0389,0.0406,0.0381,0.0411,0.0402,0.0394,0.0399,0.0395,0.0398,0.0389,0.0368,0.0368,0.0355,0.0386,0.0339,0.0335,0.0388,0.0389,0.039,0.0361,0,0.0409,0.0408,0.041,0.0399,0.0392,0.0386,0.0402,0.0409,0.0413,0.0436,0.0437,0.0454,0.041,0.0414,0.0407,0.041,0.0394,0.0394,0.038,0.0379,0.0339,0.0337,0.0339,0.0312,0.0362,0.0363,0.0363,0,0.0405,0.0411,0.0404,0.0422,0.0418,0.0416,0.045,0.0461,0.0489,0.0494,0.05,0.0498,0.0504,0.0466,0.0451,0.0444,0.0402,0.0393,0.0392,0.0351,0.0335,0.0316,0.0312,0.0365,0.0364,0.0364,0.0364,0,0.0418,0.0408,0.0415,0.0409,0.0424,0.0431,0.0444,0.0472,0.05,0.0528,0.0553,0.0551,0.0567,0.0521,0.0467,0.0454,0.0449,0.044,0.0358,0.0353,0.0357,0.0351,0.0418,0.0419,0.0419,0.0419,0.0419,0,0.0426,0.0421,0.0416,0.0417,0.0441,0.0441,0.0478,0.0498,0.0537,0.0587,0.0574,0.0621,0.0579,0.0565,0.0492,0.0423,0.0462,0.0357,0.0348,0.0354,0.0349,0.0402,0.0401,0.0418,0.0418,0.0418,0.0418,0,0.043,0.0425,0.0431,0.0439,0.0444,0.0455,0.049,0.053,0.0558,0.0624,0.0634,0.0676,0.0659,0.0598,0.0553,0.047,0.0407,0.0367,0.0358,0.0347,0.0291,0.029,0.0276,0.0274,0.0273,0.0272,0.0271,0,0.0434,0.0433,0.0441,0.0451,0.0448,0.0466,0.0497,0.0531,0.0582,0.0665,0.0714,0.0723,0.0741,0.0645,0.0517,0.0383,0.0384,0.0288,0.0267,0.0286,0.0279,0.028,0.0281,0.0267,0.0266,0.0265,0.0265,0,0.0436,0.0431,0.0444,0.0464,0.0483,0.0522,0.0565,0.0609,0.0673,0.0733,0.0819,0.0835,0.0753,0.0642,0.0457,0.0368,0.0307,0.0264,0.0315,0.0295,0.0273,0.0267,0.027,0.0257,0.0258,0.0259,0.0259,0.0259,0.0429,0.0437,0.0452,0.0477,0.051,0.0571,0.0608,0.0672,0.0752,0.0829,0.0865,0.0862,0.076,0.0506,0.0381,0.0236,0.0245,0.0186,0.019,0.0196,0.0192,0.0168,0.013,0.013,0.013,0.013,0.013,0,0.0418,0.0436,0.0467,0.0507,0.0556,0.0571,0.0656,0.0695,0.078,0.0831,0.0869,0.0739,0.0622,0.0491,0.0267,0.0143,0.0153,0.0105,0.0154,0.0162,0.0168,0.0165,0.0095,0.0095,0.0095,0.0094,0,0,0.041,0.0433,0.0459,0.0531,0.0568,0.0629,0.0673,0.0725,0.0762,0.0796,0.0776,0.0751,0.062,0.0446,0.031,0.0199,0.0203,0.0173,0.0212,0.0293,0.0301,0.0223,0.0227,0,0,0,0,0]}],[{"header":{"parameterUnit":"m.s-1","parameterCategory":2,"la1":30.2991,"la2":30.254,"lo1":-89.0895,"lo2":-89.0444,"dy":0.0017,"dx":0.0017,"nx":28,"ny":28,"refTime":"2023-11-03T21:00:00:Z","depth":"4","parameterNumber":2,"parameterNumberName":"U-component_of_CURRENTS"},"data":[0,0,0,0,0,0,0,0,0,0,0,0,0,0,0,0,0,0,0,0,0,0,0,0,0,0,0,0,0,0,0,0,0,0,0,0,0,0,0,0,0,0,0,0,0,0,0,0,0,0,0,0,0,0,0,0,0,0,0.0054,0.0054,0,0.0087,0.0088,0.0088,0.0106,0.0106,0.0106,0.0106,0.0126,0.0126,0.0127,0,0,0,0,0,0,0,0,0,0,0,0,0,-0.0009,-0.0008,0.0054,0.0054,0.0054,0.0087,0.0088,0.0088,0.0106,0.0106,0.0106,0.0106,0.0126,0.0126,0.0127,0,0,0,0,0,0,0,0,0,0,0,0,0,0.0021,-0.0007,0.0054,0.0067,0.0068,0.0087,0.0088,0.0088,0.0107,0.0106,0.0106,0.0106,0.0125,0.0126,0.0127,0.0133,0,0,0.0129,0.013,0,0,0,0,0,0,0,0,0.002,0.0024,0.0065,0.0066,0.0068,0.0092,0.0073,0.0102,0.0107,0.0093,0.0106,0.0106,0.0113,0.0114,0.0122,0.0134,0.0134,0.0129,0.013,0.013,0.013,0,0,0,0,0,0,0,0.0018,0.0022,0.0068,0.0065,0.0067,0.0066,0.0071,0.0078,0.0103,0.0094,0.0095,0.0098,0.0113,0.0121,0.0123,0.0135,0.0129,0.013,0.0131,0.0131,0.0204,0.0205,0,0,0,0,0,0,0.0013,0.0021,0.0067,0.0069,0.0042,0.0067,0.0072,0.0085,0.0103,0.0106,0.0098,0.0098,0.012,0.0122,0.0123,0.0183,0.013,0.0131,0.0131,0.0202,0.0204,0.0206,0,0,0,0,0,0,0.0012,0.0017,0.0065,0.0044,0.005,0.0068,0.0082,0.0086,0.01,0.0106,0.0108,0.011,0.012,0.0122,0.0147,0.0182,0.0131,0.0132,0.0201,0.0203,0.0205,0.0269,0,0,0,0,0,0,0.001,0.0017,0.0029,0.0044,0.0051,0.0085,0.0082,0.0086,0.0101,0.0102,0.0117,0.0118,0.012,0.0146,0.0148,0.0182,0.0133,0.0199,0.0202,0.0204,0.0265,0.0273,0.028,0,0,0,0,0,0.0008,0.0027,0.003,0.0036,0.0067,0.0086,0.009,0.0102,0.0102,0.0114,0.0128,0.0118,0.0164,0.0148,0.0149,0.0185,0.0197,0.0201,0.0204,0.0262,0.0272,0.028,0,0,0,0,0,0,0.0008,0.003,0.0035,0.006,0.0074,0.0089,0.0102,0.0106,0.0127,0.0131,0.0133,0.0136,0.0164,0.0167,0.0148,0.0214,0.0181,0.0185,0.0224,0.0234,0.0241,0.025,0.0133,0,0,0,0,0,0.0012,0.0033,0.0049,0.007,0.0077,0.0089,0.0099,0.0109,0.0125,0.0134,0.0148,0.0165,0.0179,0.0199,0.0205,0.0246,0.0254,0.0271,0.0279,0.0285,0.0294,0.0351,0.0365,0.0216,0.0216,0.0216,0,0,0.0014,0.0033,0.0042,0.0071,0.0082,0.0095,0.0096,0.0117,0.0138,0.0132,0.0172,0.018,0.019,0.0232,0.0248,0.0243,0.033,0.0289,0.0295,0.0301,0.0356,0.0371,0.0384,0.0218,0.0218,0.0218,0,0,0.0027,0.0048,0.0065,0.0078,0.0099,0.0109,0.0115,0.014,0.0163,0.0193,0.0199,0.0235,0.0254,0.0287,0.0299,0.0352,0.0352,0.0356,0.0422,0.0477,0.049,0.0502,0.052,0.0533,0.0379,0.0379,0.0379,0,0.0024,0.0053,0.0072,0.0089,0.01,0.0114,0.0129,0.0155,0.0189,0.0221,0.021,0.0274,0.0281,0.0348,0.0376,0.037,0.0392,0.0386,0.0488,0.05,0.0511,0.0527,0.054,0.0382,0.0382,0.0382,0.0381,0,0.0045,0.0066,0.0077,0.0103,0.0121,0.0137,0.0167,0.0205,0.0226,0.0254,0.0319,0.0343,0.0391,0.0403,0.0407,0.05,0.0485,0.0476,0.0466,0.053,0.0542,0.0555,0.0387,0.0386,0.0385,0.0384,0,0,0.0035,0.008,0.0083,0.0099,0.013,0.0146,0.0195,0.0247,0.0291,0.0336,0.0403,0.0448,0.0479,0.0496,0.0521,0.0581,0.0672,0.0578,0.0579,0.0597,0.0783,0.0668,0.067,0.0693,0.0696,0.0698,0.0757,0,0.0039,0.007,0.0097,0.0126,0.014,0.0179,0.0225,0.028,0.0325,0.0399,0.0457,0.0518,0.051,0.0555,0.0615,0.0658,0.0711,0.0655,0.0718,0.0719,0.0611,0.0683,0.0707,0.0767,0.0769,0.0772,0.0773,0,0.0044,0.0068,0.0092,0.0147,0.0159,0.019,0.027,0.0314,0.0418,0.0461,0.0542,0.0585,0.0695,0.067,0.0784,0.0756,0.0779,0.08,0.0803,0.0683,0.0628,0.0693,0.0796,0.0794,0.0792,0.0791,0.0789,0,0.0019,0.0065,0.0086,0.0098,0.0159,0.0206,0.0256,0.0344,0.04,0.0523,0.0573,0.0684,0.0739,0.0817,0.0853,0.0846,0.095,0.0939,0.0848,0.0838,0.0894,0.0881,0.1013,0.1013,0.1013,0.1013,0.1013,0,0.0009,0.0026,0.0085,0.0094,0.0146,0.0203,0.0279,0.0344,0.0455,0.0522,0.0616,0.0676,0.0781,0.0845,0.089,0.0897,0.0978,0.087,0.0858,0.0916,0.0906,0.0902,0.0888,0.1015,0.1015,0.1014,0.1014,0,-0.0027,0.0003,0.0028,0.0101,0.0131,0.0173,0.0291,0.0352,0.0451,0.0546,0.0599,0.0697,0.0768,0.0836,0.0933,0.0906,0.0952,0.0925,0.0967,0.0954,0.0797,0.0786,0.0859,0.0856,0.0853,0.0851,0.0849,0,-0.0038,-0.0032,0.002,0.0044,0.0084,0.0162,0.0224,0.0341,0.0403,0.0543,0.0585,0.0679,0.0734,0.0786,0.0841,0.0904,0.0882,0.089,0.0866,0.0806,0.0788,0.0781,0.0774,0.0844,0.0843,0.0843,0.0842,0,-0.0063,-0.0054,-0.0039,0.0011,0.0071,0.013,0.023,0.0275,0.0407,0.0494,0.0583,0.0642,0.0681,0.0736,0.0759,0.0805,0.0894,0.0861,0.0867,0.0845,0.0789,0.0772,0.0768,0.0832,0.0834,0.0835,0.0835,0,-0.0084,-0.0086,-0.0063,-0.0015,0.0038,0.0097,0.0153,0.0252,0.0331,0.0494,0.0507,0.0607,0.0674,0.0681,0.0724,0.0739,0.0734,0.0721,0.0735,0.0746,0.0676,0.0586,0.0574,0,0,0,0,0,-0.0096,-0.0098,-0.0071,-0.0027,0.0019,0.0064,0.0157,0.0218,0.0339,0.0392,0.0462,0.0516,0.0571,0.0605,0.06,0.0639,0.0713,0.0626,0.07,0.0778,0.079,0.0714,0,0,0,0,0,0,-0.0104,-0.0101,-0.0087,-0.0044,-0.0011,0.0052,0.0109,0.0188,0.0227,0.0345,0.038,0.0464,0.052,0.0574,0.0585,0.0594,0.0624,0.0681,0.0679,0.0772,0.0782,0.0791,0.0718,0,0,0,0,0]},{"header":{"parameterUnit":"m.s-1","parameterCategory":2,"la1":30.2991,"la2":30.254,"lo1":-89.0895,"lo2":-89.0444,"dy":0.0017,"dx":0.0017,"nx":28,"ny":28,"refTime":"2023-11-03T21:00:00:Z","depth":"4","parameterNumber":3,"parameterNumberName":"V-component_of_CURRENTS"},"data":[0,0,0,0,0,0,0,0,0,0,0,0,0,0,0,0,0,0,0,0,0,0,0,0,0,0,0,0,0,0,0,0,0,0,0,0,0,0,0,0,0,0,0,0,0,0,0,0,0,0,0,0,0,0,0,0,0,0,0.0521,0.0521,0,0.0523,0.0524,0.0524,0.0539,0.0539,0.0539,0.054,0.0552,0.0552,0.0552,0,0,0,0,0,0,0,0,0,0,0,0,0,0.051,0.051,0.0521,0.0521,0.0521,0.0523,0.0524,0.0524,0.0539,0.0539,0.0539,0.054,0.0552,0.0552,0.0552,0,0,0,0,0,0,0,0,0,0,0,0,0,0.0514,0.051,0.0522,0.0529,0.0529,0.0523,0.0524,0.0524,0.0539,0.0539,0.0539,0.054,0.0552,0.0552,0.0552,0.0544,0,0,0.0553,0.0553,0,0,0,0,0,0,0,0,0.0514,0.0515,0.0528,0.0528,0.0529,0.0531,0.0524,0.0531,0.0538,0.0536,0.054,0.054,0.0545,0.0546,0.0546,0.0544,0.0545,0.0553,0.0553,0.0553,0.0553,0,0,0,0,0,0,0,0.0514,0.0515,0.0523,0.0527,0.0528,0.0524,0.0526,0.0525,0.0539,0.0536,0.0537,0.0536,0.0546,0.0546,0.0547,0.0545,0.0553,0.0553,0.0553,0.0553,0.0563,0.0564,0,0,0,0,0,0,0.0513,0.0515,0.0523,0.0523,0.0522,0.0524,0.0526,0.053,0.0538,0.054,0.0535,0.0537,0.0546,0.0546,0.0547,0.0572,0.0553,0.0553,0.0553,0.0563,0.0563,0.0564,0,0,0,0,0,0,0.0513,0.0514,0.0523,0.0518,0.0519,0.0524,0.0529,0.053,0.0538,0.0538,0.054,0.0543,0.0546,0.0547,0.0562,0.0571,0.0553,0.0553,0.0563,0.0563,0.0564,0.0599,0,0,0,0,0,0,0.0512,0.0514,0.0519,0.0518,0.0519,0.053,0.0528,0.053,0.0536,0.0537,0.0544,0.0546,0.0547,0.0562,0.0562,0.0571,0.0553,0.0563,0.0563,0.0563,0.0597,0.06,0.0603,0,0,0,0,0,0.0512,0.0518,0.0519,0.052,0.0525,0.053,0.0531,0.0536,0.0536,0.0544,0.0552,0.0546,0.0564,0.0563,0.0563,0.0572,0.0562,0.0563,0.0563,0.0596,0.06,0.0603,0,0,0,0,0,0,0.0524,0.0519,0.0521,0.0528,0.0533,0.0533,0.0538,0.0539,0.055,0.0555,0.0553,0.0555,0.0568,0.0564,0.0562,0.0574,0.056,0.0561,0.0585,0.0588,0.0591,0.0584,0.0553,0,0,0,0,0,0.0525,0.0526,0.0526,0.0535,0.0536,0.0537,0.0539,0.0546,0.0552,0.0558,0.0564,0.0567,0.0568,0.0575,0.0575,0.0586,0.0552,0.0589,0.0592,0.0595,0.0588,0.0549,0.0547,0.0565,0.0565,0.0565,0,0,0.0536,0.053,0.0535,0.0536,0.0539,0.0547,0.0541,0.0552,0.0564,0.0557,0.058,0.0577,0.0571,0.0585,0.059,0.0586,0.0571,0.0595,0.0598,0.059,0.0549,0.0547,0.0545,0.0566,0.0566,0.0566,0,0,0.0547,0.0549,0.0551,0.0554,0.0557,0.056,0.0564,0.0572,0.0583,0.0599,0.0596,0.0597,0.0607,0.0604,0.0601,0.0616,0.0583,0.062,0.0635,0.0597,0.0595,0.0593,0.0542,0.0535,0.0626,0.0626,0.0626,0,0.0559,0.0559,0.0555,0.0556,0.0559,0.0566,0.0574,0.0587,0.0603,0.0606,0.0613,0.0611,0.061,0.0611,0.0622,0.0621,0.0591,0.0626,0.06,0.0597,0.0594,0.0543,0.0535,0.0628,0.0628,0.0627,0.0627,0,0.0568,0.0571,0.0574,0.0576,0.0582,0.0592,0.0605,0.0623,0.0632,0.0632,0.064,0.0641,0.0635,0.0639,0.0639,0.0624,0.0606,0.0604,0.0591,0.0594,0.054,0.0531,0.063,0.063,0.0629,0.0629,0,0,0.0577,0.0579,0.058,0.0581,0.0592,0.0598,0.0624,0.0635,0.0638,0.0658,0.0653,0.0663,0.0655,0.0651,0.0651,0.0629,0.0586,0.0616,0.0613,0.0565,0.0491,0.0461,0.0447,0.0583,0.0582,0.0581,0.0459,0,0.0583,0.0587,0.0588,0.0601,0.0602,0.0618,0.0636,0.0649,0.0654,0.0656,0.0656,0.0653,0.0663,0.0663,0.0643,0.0601,0.0564,0.0618,0.0496,0.0491,0.0464,0.0437,0.0577,0.0452,0.045,0.0448,0.0447,0,0.058,0.0582,0.0595,0.06,0.0603,0.0626,0.064,0.0653,0.0657,0.0657,0.0656,0.065,0.0637,0.0639,0.0563,0.0599,0.0544,0.0508,0.0502,0.0454,0.0444,0.0449,0.043,0.0431,0.0433,0.0434,0.0435,0,0.0567,0.058,0.059,0.0595,0.0612,0.0635,0.065,0.0659,0.0662,0.0661,0.0653,0.0633,0.0613,0.0566,0.0505,0.0531,0.0399,0.0419,0.0333,0.0329,0.0379,0.0382,0.034,0.034,0.034,0.0341,0.0341,0,0.055,0.0557,0.0595,0.0599,0.062,0.0634,0.065,0.0661,0.0665,0.0651,0.0656,0.0634,0.0592,0.0525,0.048,0.0371,0.0373,0.0317,0.0293,0.0396,0.0403,0.0371,0.0376,0.0336,0.0337,0.0338,0.0339,0,0.0519,0.0542,0.0555,0.0593,0.0612,0.0629,0.0663,0.0669,0.0672,0.0656,0.066,0.0614,0.0528,0.0468,0.0358,0.0319,0.0234,0.0187,0.028,0.0266,0.0195,0.0204,0.0084,0.0082,0.008,0.0079,0.0078,0,0.0494,0.0501,0.0552,0.0574,0.0601,0.0634,0.0659,0.0678,0.0675,0.064,0.0625,0.0545,0.0508,0.0325,0.0266,0.0152,0.0144,0.0091,0.0168,0.0179,0.0167,0.0179,0.019,0.0075,0.0074,0.0074,0.0073,0,0.0447,0.0479,0.0493,0.0544,0.0588,0.0612,0.0647,0.0645,0.0647,0.0657,0.0582,0.0511,0.0389,0.0292,0.0185,0.0117,0.0133,0.0072,0.0077,0.0149,0.0166,0.0159,0.0171,0.0067,0.0068,0.0068,0.0069,0,0.0414,0.0422,0.0459,0.0493,0.055,0.0577,0.0599,0.06,0.0597,0.0578,0.0542,0.0453,0.0402,0.0268,0.0182,0.0101,0.0101,0.0096,0.0099,0.0105,0.0164,0.0192,0.0062,0,0,0,0,0,0.0377,0.038,0.0408,0.0443,0.0501,0.0535,0.0581,0.0598,0.0612,0.056,0.0553,0.0454,0.0317,0.0257,0.0168,0.0151,0.0083,0.0045,0.0079,0.0032,0.0039,0.0104,0,0,0,0,0,0,0.0352,0.0372,0.0382,0.0395,0.0421,0.0472,0.0509,0.0521,0.0492,0.0503,0.0431,0.0423,0.029,0.0356,0.0158,0.0135,0.0144,-0.0008,-0.001,0.0028,0.0034,0.004,0.0109,0,0,0,0,0]}]]